DateTimeUTC,F1_A11,F1_S11,BsB_S11,BsG_S11,BsR_S11,BbsB_S11,BbsG_S11,BbsR_S11,BaB_A11,BaG_A11,BaR_A11,Tu_S11,T_S11,Uu_S11,U_S11,P_S11,T1_A11
2021-11-04T15:00:00Z,00000200,21000000,,,,,,,-000.09,0000.09,-000.12,18.6,25.7,,00.0,0648.7,31.1
2021-11-04T15:01:00Z,00000200,21000000,,,,,,,-000.06,0000.08,0000.06,18.6,25.7,,00.0,0648.7,31.1
2021-11-04T15:02:00Z,00000200,21000000,,,,,,,0000.30,-000.25,0000.08,18.5,25.6,,00.0,0648.6,31.0
2021-11-04T15:03:00Z,00000200,61000000,,,,,,,0000.19,0000.46,-000.05,18.5,25.6,,00.0,0648.6,31.1
2021-11-04T15:04:00Z,00000200,41000000,-000.04,0000.14,-000.18,-000.27,-000.38,0000.04,-000.05,0000.38,0000.59,18.5,25.4,,00.0,0649.5,31.1
2021-11-04T15:05:00Z,00000200,01000000,0000.28,0000.01,0000.05,0000.31,0000.03,0000.21,0000.54,-000.06,0000.24,18.6,25.3,,00.0,0649.6,31.1
2021-11-04T15:06:00Z,00000200,01000000,0000.55,0000.05,0000.07,-000.18,-000.04,0000.21,0000.05,0000.12,-000.48,18.7,25.4,,00.0,0649.6,31.1
2021-11-04T15:07:00Z,00000200,01000000,0000.09,0000.39,0000.10,0000.32,0000.37,0000.17,0000.10,0000.31,0000.67,18.8,25.4,,00.0,0649.6,31.1
2021-11-04T15:08:00Z,00000200,01000000,0000.45,0000.05,0000.21,-000.32,-000.05,0000.12,0000.36,0000.17,0000.23,18.8,25.4,,00.0,0649.6,31.1
2021-11-04T15:09:00Z,00000200,01000000,-000.03,-000.07,-000.12,-000.06,0000.30,0000.08,0000.39,0000.22,-000.24,18.9,25.4,,00.0,0649.6,31.1
2021-11-04T15:10:00Z,00000200,01000000,0000.32,0000.31,0000.12,-000.15,-000.10,0000.41,0000.07,0000.15,0000.35,19.0,25.5,,00.0,0649.6,31.1
2021-11-04T15:11:00Z,00000200,01000000,0000.03,0000.02,-000.12,0000.63,-000.05,0000.05,-000.11,0000.43,0000.06,19.1,25.5,,00.0,0649.6,31.1
2021-11-04T15:12:00Z,00000200,01000000,0000.80,0000.13,0000.18,-000.21,-000.04,0000.22,0000.40,0000.03,0000.16,19.1,25.6,,00.0,0649.6,31.1
2021-11-04T15:13:00Z,00000200,01000000,-000.24,0000.26,-000.10,-000.23,-000.18,0000.07,-000.33,-000.09,-000.18,19.2,25.6,,00.0,0649.7,31.1
2021-11-04T15:14:00Z,00000200,01000000,0000.86,-000.32,0000.06,-000.94,0000.14,-000.16,0000.16,0000.04,0000.25,19.1,25.6,,00.0,0649.6,31.1
2021-11-04T15:15:00Z,00000200,01000000,-000.21,0000.24,-000.02,-000.26,0000.09,-000.10,0000.30,0000.17,0000.13,19.0,25.5,,00.0,0649.6,31.1
2021-11-04T15:16:00Z,00000200,01000000,-000.12,0000.02,0000.12,0000.19,0000.07,0000.04,-000.02,-000.06,0000.15,18.9,25.5,,00.0,0649.6,31.1
2021-11-04T15:17:00Z,00000200,01000000,-000.46,-000.05,0000.08,-000.77,0000.20,0000.16,-000.04,-000.02,0000.28,18.9,25.4,,00.0,0649.6,31.1
2021-11-04T15:18:00Z,00000200,01000000,0000.92,-000.19,0000.02,-000.66,0000.24,0000.03,0000.52,0000.38,-000.19,18.9,25.4,,00.0,0649.6,31.1
2021-11-04T15:19:00Z,00000200,01000000,0000.17,0000.05,0000.14,-000.23,-000.04,-000.08,-000.33,-000.22,-000.12,18.9,25.4,,00.0,0649.6,31.1
2021-11-04T15:20:00Z,00000200,01000000,0000.18,-000.00,0000.18,-000.77,-000.22,0000.01,0000.19,0000.23,0000.18,18.9,25.4,,00.0,0649.6,31.1
2021-11-04T15:21:00Z,00000200,01000000,0000.61,-000.14,-000.03,0000.44,-000.06,-000.07,0000.19,0000.27,-000.31,19.0,25.4,,00.0,0649.6,31.1
2021-11-04T15:22:00Z,00000200,01000000,-000.20,-000.04,0000.11,0000.38,-000.06,0000.09,0000.04,-000.39,0000.33,19.0,25.5,,00.0,0649.6,31.1
2021-11-04T15:23:00Z,00000200,01000000,0000.26,0000.19,-000.02,0000.30,0000.18,-000.24,-000.22,0000.42,0000.10,19.1,25.5,,00.0,0649.7,31.1
2021-11-04T15:24:00Z,00000200,01000000,0000.57,0000.12,-000.04,-000.20,-000.03,0000.28,0000.36,-000.26,0000.13,19.2,25.5,,00.0,0649.7,31.2
2021-11-04T15:25:00Z,00000200,01000000,0000.39,-000.01,-000.10,0000.33,-000.40,-000.13,-000.07,0000.20,0000.22,19.2,25.6,,00.0,0649.7,31.2
2021-11-04T15:26:00Z,00000200,01000000,0000.59,0000.22,0000.30,-000.10,-000.04,0000.26,0000.09,0000.30,-000.01,19.2,25.6,,00.0,0649.7,31.1
2021-11-04T15:27:00Z,00000200,01000000,-000.87,-000.01,-000.00,-000.18,0000.17,0000.06,0000.14,0000.15,0000.02,19.2,25.6,,00.0,0649.7,31.1
2021-11-04T15:28:00Z,00000200,01000000,0000.70,0000.08,-000.30,-000.57,0000.02,0000.01,-000.12,-000.23,-000.10,19.1,25.5,,00.0,0649.7,31.1
2021-11-04T15:29:00Z,00000200,01000000,-000.26,0000.11,-000.03,0000.37,0000.06,0000.01,0000.50,-000.14,0000.04,19.0,25.5,,00.0,0649.7,31.1
2021-11-04T15:30:00Z,00000200,01000000,-000.23,-000.04,0000.07,-000.16,0000.39,-000.10,-000.48,0000.03,-000.12,18.9,25.4,,00.0,0649.6,31.1
2021-11-04T15:31:00Z,00000200,01000000,-000.00,0000.08,0000.07,0000.33,-000.21,-000.05,0000.36,0000.19,0000.12,18.8,25.4,,00.0,0649.6,31.1
2021-11-04T15:32:00Z,00000200,01000000,0001.07,0000.20,0000.04,0000.00,-000.11,-000.01,0000.05,0000.07,0000.04,18.8,25.4,,00.0,0649.6,31.1
2021-11-04T15:33:00Z,00000200,01000000,0000.04,0000.22,0000.28,0000.26,-000.20,-000.21,-000.05,0000.07,0000.18,18.7,25.3,,00.0,0649.7,31.1
2021-11-04T15:34:00Z,00000200,01000000,0000.22,-000.08,0000.14,-000.67,-000.10,0000.11,0000.28,0000.08,0000.25,18.7,25.3,,00.0,0649.7,31.1
2021-11-04T15:35:00Z,00000200,01000000,0000.08,0000.18,0000.45,0000.40,-000.13,0000.07,-000.31,-000.13,-000.20,18.8,25.3,,00.0,0649.7,31.1
2021-11-04T15:36:00Z,00000200,01000000,0000.41,0000.21,0000.23,0000.21,0000.16,0000.11,0000.22,0000.75,0000.38,18.9,25.4,,00.0,0649.7,31.1
2021-11-04T15:37:00Z,00000200,01000000,0000.40,-000.10,0000.02,-000.21,-000.28,0000.07,0000.36,-000.28,-000.21,18.9,25.4,,00.0,0649.7,31.1
2021-11-04T15:38:00Z,00000200,01000000,0000.32,0000.07,-000.13,-000.71,-000.12,0000.22,-000.11,0000.23,-000.03,19.0,25.5,,00.0,0649.7,31.1
2021-11-04T15:39:00Z,00000200,01000000,-000.93,0000.20,-000.03,-000.45,-000.16,0000.27,0000.16,-000.33,0000.31,19.1,25.5,,00.0,0649.7,31.1
2021-11-04T15:40:00Z,00000200,01000000,-000.03,0000.49,0000.12,-000.04,0000.06,0000.24,0000.20,0000.44,-000.09,19.2,25.5,,00.0,0649.7,31.2
2021-11-04T15:41:00Z,00000200,01000000,-000.04,0000.06,-000.18,0000.43,0000.26,0000.22,0000.01,-000.13,0000.23,19.2,25.5,,00.0,0649.7,31.2
2021-11-04T15:42:00Z,00000200,01000000,-000.00,0000.50,-000.22,-000.32,0000.24,0000.05,-000.13,-000.18,-000.00,19.2,25.6,,00.0,0649.6,31.1
2021-11-04T15:43:00Z,00000200,01000000,0000.14,-000.17,0000.21,-000.33,-000.20,-000.27,0000.18,0000.27,0000.05,19.1,25.5,,00.0,0649.6,31.1
2021-11-04T15:44:00Z,00000200,01000000,0000.45,0000.04,0000.48,-000.62,-000.35,0000.21,-000.08,-000.21,-000.12,19.0,25.5,,00.0,0649.6,31.1
2021-11-04T15:45:00Z,00000200,01000000,0000.47,0000.07,-000.13,-000.22,0000.35,-000.02,-000.12,0000.45,0000.13,19.0,25.5,,00.0,0649.6,31.1
2021-11-04T15:46:00Z,00000200,01000000,0000.86,0000.05,-000.26,0000.43,0000.10,0000.09,0000.21,-000.01,0000.07,18.9,25.4,,00.0,0649.6,31.1
2021-11-04T15:47:00Z,00000200,01000000,0000.64,-000.04,-000.04,-000.20,0000.10,0000.12,0000.31,-000.07,-000.27,18.8,25.4,,00.0,0649.6,31.0
2021-11-04T15:48:00Z,00000200,01000000,0000.11,0000.01,-000.14,0000.48,-000.28,-000.30,-000.13,-000.05,0000.21,18.8,25.4,,00.0,0649.6,31.1
2021-11-04T15:49:00Z,00000200,01000000,-000.08,0000.43,-000.18,0000.28,-000.21,-000.02,-000.14,-000.08,-000.20,18.8,25.4,,00.0,0649.6,31.1
2021-11-04T15:50:00Z,00000200,01000000,-000.25,0000.26,-000.08,-000.13,-000.34,-000.10,0000.40,0000.09,0000.06,18.8,25.4,,00.0,0649.6,31.1
2021-11-04T15:51:00Z,00000200,01000000,-000.49,0000.10,-000.04,-000.47,-000.21,-000.30,-000.36,0000.30,-000.04,18.9,25.4,,00.0,0649.7,31.1
2021-11-04T15:52:00Z,00000200,01000000,0000.85,0000.07,0000.21,-000.38,-000.38,0000.29,0000.26,0000.14,0000.17,19.0,25.4,,00.0,0649.7,31.1
2021-11-04T15:53:00Z,00000200,01000000,0000.37,0000.32,0000.11,0000.23,0000.20,-000.02,-000.11,-000.03,0000.27,19.1,25.5,,00.0,0649.7,31.1
2021-11-04T15:54:00Z,00000200,01000000,0000.36,-000.15,0000.16,-000.12,-000.00,0000.37,0000.22,0000.16,0000.09,19.1,25.5,,00.0,0649.7,31.1
2021-11-04T15:55:00Z,00000200,01000000,-000.55,-000.16,0000.01,-000.10,-000.03,-000.09,0000.08,-000.05,-000.10,19.2,25.5,,00.0,0649.7,31.2
2021-11-04T15:56:00Z,00000200,01000000,0000.38,0000.23,0000.03,-000.32,0000.11,0000.11,0000.06,0000.03,0000.38,19.3,25.6,,00.0,0649.7,31.2
2021-11-04T15:57:00Z,00000200,41000000,,,,,,,-000.67,-000.27,-000.63,19.4,25.6,,00.0,0649.7,31.2
2021-11-04T15:58:00Z,00000200,61000000,,,,,,,0000.18,0000.00,0000.01,19.0,25.7,,00.0,0648.8,31.1
2021-11-04T15:59:00Z,00000200,21000000,,,,,,,-000.19,0000.14,0000.16,19.0,25.8,,00.0,0648.8,31.1
